DateTimeUTC,F1_A11,F1_S11,BsB_S11,BsG_S11,BsR_S11,BbsB_S11,BbsG_S11,BbsR_S11,BaB_A11,BaG_A11,BaR_A11,Tu_S11,T_S11,Uu_S11,U_S11,P_S11,T1_A11
2021-11-24T01:00:00Z,00000200,21000000,,,,,,,-000.49,-000.38,0000.13,18.3,25.3,,00.0,0645.6,30.8
2021-11-24T01:01:00Z,00000200,21000000,,,,,,,0000.08,0000.29,-000.24,18.3,25.3,,00.0,0645.6,30.8
2021-11-24T01:02:00Z,00000200,21000000,,,,,,,-000.19,-000.37,-000.16,18.3,25.3,,00.0,0645.6,30.8
2021-11-24T01:03:00Z,00000200,61000000,,,,,,,-000.19,-000.08,-000.05,18.3,25.3,,00.0,0645.6,30.8
2021-11-24T01:04:00Z,00000200,41000000,0001.20,0000.38,-000.12,0000.29,0000.20,-000.38,0000.55,0000.19,0000.23,18.5,25.2,,00.0,0646.3,30.8
2021-11-24T01:05:00Z,00000200,01000000,0000.65,0000.23,0000.23,0000.96,-000.00,0000.26,-000.04,0000.42,0000.27,18.4,25.1,,00.0,0646.3,30.7
2021-11-24T01:06:00Z,00000200,01000000,0000.41,0000.47,0000.03,0000.40,-000.07,-000.05,0000.40,0000.35,-000.02,18.4,25.0,,00.0,0646.3,30.7
2021-11-24T01:07:00Z,00000200,01000000,0000.51,0000.19,0000.10,0000.21,0000.17,0000.16,0000.32,0000.17,0000.38,18.4,25.0,,00.0,0646.3,30.7
2021-11-24T01:08:00Z,00000200,01000000,0000.50,0000.34,0000.05,0000.47,0000.26,0000.12,0000.34,0000.51,0000.05,18.4,25.0,,00.0,0646.3,30.8
2021-11-24T01:09:00Z,00000200,01000000,0000.54,0000.13,-000.04,0000.70,0000.10,0000.11,0000.19,-000.30,0000.15,18.4,25.0,,00.0,0646.3,30.8
2021-11-24T01:10:00Z,00000200,01000000,0000.53,0000.18,-000.04,0000.09,0000.06,-000.01,0000.20,0000.56,0000.28,18.4,25.0,,00.0,0646.2,30.8
2021-11-24T01:11:00Z,00000200,01000000,-000.03,0000.21,0000.36,0000.69,0000.44,0000.04,0000.54,0000.23,0000.53,18.4,25.0,,00.0,0646.2,30.8
2021-11-24T01:12:00Z,00000200,01000000,0000.43,0000.19,0000.46,0000.10,0000.12,0000.15,-000.02,0000.12,-000.20,18.4,25.0,,00.0,0646.2,30.8
2021-11-24T01:13:00Z,00000200,01000000,0000.74,0000.06,0000.14,0000.24,-000.10,-000.27,0000.16,-000.18,0000.14,18.4,25.0,,00.0,0646.2,30.8
2021-11-24T01:14:00Z,00000200,01000000,0000.08,0000.01,0000.43,-000.48,0000.22,0000.06,-000.16,0000.31,0000.04,18.5,25.0,,00.0,0646.1,30.8
2021-11-24T01:15:00Z,00000200,01000000,-000.23,0000.22,-000.00,0000.54,0000.37,0000.04,0000.37,0000.29,0000.44,18.5,25.0,,00.0,0646.1,30.8
2021-11-24T01:16:00Z,00000200,01000000,-000.03,0000.09,-000.06,0000.24,0000.11,0000.02,0000.36,0000.12,-000.27,18.5,25.0,,00.0,0646.1,30.8
2021-11-24T01:17:00Z,00000200,01000000,0000.56,0000.05,0000.29,0000.44,-000.02,0000.27,-000.05,0000.08,0000.37,18.5,25.0,,00.0,0646.1,30.8
2021-11-24T01:18:00Z,00000200,01000000,0000.09,0000.00,0000.33,0000.11,0000.12,-000.11,0000.39,0000.20,0000.16,18.5,25.0,,00.0,0646.1,30.8
2021-11-24T01:19:00Z,00000200,01000000,0000.84,0000.13,0000.18,-000.64,0000.03,0000.05,0000.59,0000.86,0000.79,18.5,25.0,,00.0,0646.1,30.8
2021-11-24T01:20:00Z,00000200,01000000,0000.89,0000.32,0000.36,0000.27,0000.10,-000.07,0000.08,0000.07,-000.21,18.4,25.0,,00.0,0646.1,30.8
2021-11-24T01:21:00Z,00000200,01000000,0000.18,0000.05,-000.01,-000.17,0000.42,-000.44,-000.00,-000.17,0000.02,18.4,24.9,,00.0,0646.1,30.8
2021-11-24T01:22:00Z,00000200,01000000,0001.36,0000.46,0000.11,0000.28,0000.24,-000.04,0000.09,0000.42,-000.01,18.4,24.9,,00.0,0646.1,30.8
2021-11-24T01:23:00Z,00000200,01000000,0000.92,0000.47,0000.23,0000.85,-000.03,-000.21,0000.41,0000.28,0000.32,18.4,24.9,,00.0,0646.1,30.8
2021-11-24T01:24:00Z,00000200,01000000,0000.42,-000.08,0000.39,0000.36,0000.24,-000.27,0000.00,0000.20,0000.32,18.4,24.9,,00.0,0646.1,30.7
2021-11-24T01:25:00Z,00000200,01000000,0000.92,0000.28,0000.31,0000.52,0000.32,0000.19,-000.05,-000.30,-000.41,18.4,24.9,,00.0,0646.2,30.8
2021-11-24T01:26:00Z,00000200,01000000,0000.17,0000.03,0000.10,0000.33,0000.22,-000.05,0000.41,0000.05,0000.14,18.4,24.9,,00.0,0646.2,30.8
2021-11-24T01:27:00Z,00000200,01000000,0000.52,0000.24,0000.22,-000.17,0000.51,0000.12,-000.21,-000.05,-000.05,18.4,24.9,,00.0,0646.2,30.8
2021-11-24T01:28:00Z,00000200,01000000,0000.24,0000.10,0000.20,-000.19,0000.30,0000.02,0000.08,0000.17,0000.27,18.5,24.9,,00.0,0646.2,30.8
2021-11-24T01:29:00Z,00000200,01000000,-000.13,0000.29,0000.07,0000.54,0000.18,-000.00,0000.15,0000.10,-000.12,18.5,24.9,,00.0,0646.3,30.8
2021-11-24T01:30:00Z,00000200,01000000,0000.57,-000.19,-000.03,0000.59,0000.26,-000.01,-000.11,0000.16,0000.02,18.5,24.9,,00.0,0646.3,30.8
2021-11-24T01:31:00Z,00000200,01000000,0000.43,0000.05,0000.08,0000.22,0000.20,-000.11,-000.11,-000.14,0000.10,18.5,24.9,,00.0,0646.3,30.8
2021-11-24T01:32:00Z,00000200,01000000,-000.21,0000.28,0000.27,0000.19,0000.63,-000.26,0000.33,-000.10,-000.37,18.5,24.9,,00.0,0646.3,30.8
2021-11-24T01:33:00Z,00000200,01000000,0000.79,0000.21,-000.06,0000.55,0000.30,0000.04,-000.07,-000.20,0000.16,18.5,24.9,,00.0,0646.4,30.8
2021-11-24T01:34:00Z,00000200,01000000,-000.38,0000.20,0000.12,0000.01,0000.62,-000.11,-000.46,-000.37,-000.29,18.5,24.9,,00.0,0646.5,30.8
2021-11-24T01:35:00Z,00000200,01000000,0000.20,-000.15,0000.05,0000.01,0000.23,-000.14,-000.04,0000.03,-000.12,18.5,24.9,,00.0,0646.5,30.8
2021-11-24T01:36:00Z,00000200,01000000,0000.92,-000.09,-000.02,0000.23,0000.21,-000.16,-000.25,-000.24,-000.38,18.5,24.9,,00.0,0646.6,30.8
2021-11-24T01:37:00Z,00000200,01000000,0000.42,0000.25,0000.19,0000.29,0000.15,-000.09,0000.11,0000.30,0000.24,18.5,24.9,,00.0,0646.7,30.8
2021-11-24T01:38:00Z,00000200,01000000,0000.42,0000.09,0000.27,0000.41,0000.19,-000.21,-000.28,-000.58,-000.64,18.5,24.9,,00.0,0646.8,30.8
2021-11-24T01:39:00Z,00000200,01000000,0000.67,-000.12,0000.48,0000.10,0000.31,0000.26,0000.19,0000.21,0000.07,18.4,24.9,,00.0,0646.8,30.8
2021-11-24T01:40:00Z,00000200,01000000,0000.39,0000.01,0000.11,0000.36,0000.07,0000.20,0000.09,-000.18,-000.17,18.5,24.9,,00.0,0646.8,30.8
2021-11-24T01:41:00Z,00000200,01000000,0000.51,0000.21,0000.01,0000.62,0000.12,-000.01,0000.31,0000.37,0000.41,18.5,24.9,,00.0,0646.7,30.8
2021-11-24T01:42:00Z,00000200,01000000,-000.12,0000.09,0000.11,0000.27,0000.28,0000.17,-000.53,0000.07,-000.45,18.5,24.9,,00.0,0646.7,30.8
2021-11-24T01:43:00Z,00000200,01000000,0000.01,0000.19,0000.03,0000.13,-000.01,0000.07,0000.28,-000.06,0000.08,18.5,24.9,,00.0,0646.7,30.8
2021-11-24T01:44:00Z,00000200,01000000,-000.20,0000.13,-000.08,0000.55,0000.23,-000.05,0000.23,-000.17,0000.13,18.5,24.9,,00.0,0646.7,30.8
2021-11-24T01:45:00Z,00000200,01000000,0000.21,0000.33,0000.33,0000.37,-000.14,-000.12,-000.51,0000.36,0000.23,18.5,24.9,,00.0,0646.8,30.8
2021-11-24T01:46:00Z,00000200,01000000,0000.43,0000.16,0000.15,-000.11,0000.18,0000.08,0000.51,-000.17,0000.02,18.5,24.9,,00.0,0646.8,30.8
2021-11-24T01:47:00Z,00000200,01000000,0000.64,0000.02,0000.21,0000.09,-000.16,0000.01,-000.10,-000.07,-000.19,18.5,24.9,,00.0,0646.8,30.8
2021-11-24T01:48:00Z,00000200,01000000,0000.32,-000.00,0000.27,0000.75,-000.01,0000.06,0000.42,0000.29,-000.01,18.5,24.9,,00.0,0646.8,30.8
2021-11-24T01:49:00Z,00000200,01000000,0000.55,0000.19,-000.05,0000.74,0000.23,-000.31,-000.21,0000.10,0000.17,18.5,24.9,,00.0,0646.8,30.8
2021-11-24T01:50:00Z,00000200,01000000,0000.51,0000.32,0000.47,0000.71,0000.40,-000.31,-000.21,-000.26,-000.19,18.5,24.9,,00.0,0646.8,30.8
2021-11-24T01:51:00Z,00000200,01000000,0001.24,0000.03,0000.15,0000.67,0000.19,-000.01,0000.17,-000.11,-000.22,18.5,24.9,,00.0,0646.7,30.8
2021-11-24T01:52:00Z,00000200,01000000,0000.77,0000.06,0000.44,0000.26,0000.32,0000.25,0000.20,0000.29,0000.52,18.5,24.9,,00.0,0646.7,30.8
2021-11-24T01:53:00Z,00000200,01000000,0000.63,0000.23,0000.22,0000.14,0000.47,0000.06,0000.38,0000.28,0000.31,18.4,24.9,,00.0,0646.7,30.8
2021-11-24T01:54:00Z,00000200,01000000,0000.92,0000.00,0000.06,-000.22,-000.01,-000.14,0000.04,0000.22,0000.03,18.4,24.9,,00.0,0646.7,30.8
2021-11-24T01:55:00Z,00000200,01000000,0000.83,0000.20,0000.02,-000.18,-000.07,-000.00,0000.39,0000.18,-000.13,18.4,24.9,,00.0,0646.6,30.8
2021-11-24T01:56:00Z,00000200,01000000,0000.03,0000.29,0000.10,-000.37,0000.11,0000.03,-000.21,-000.03,0000.02,18.4,24.9,,00.0,0646.5,30.8
2021-11-24T01:57:00Z,00000200,41000000,,,,,,,0000.99,0001.24,0001.41,18.5,24.9,,00.0,0646.5,30.8
2021-11-24T01:58:00Z,00000200,61000000,,,,,,,0000.11,-000.54,-000.40,18.1,25.0,,00.0,0645.5,30.8
2021-11-24T01:59:00Z,00000200,21000000,,,,,,,-000.46,-000.19,-000.27,18.1,25.1,,00.0,0645.4,30.8
